Hourly Weather Odesa

Today, 28 September, Monday

Time Temperature Precipitation Wind Pressure Humidity
00:00 +18°C° 0 mm 3 mps 758 mmHg 52%
01:00 +18°C° 0 mm 3 mps 758 mmHg 54%
02:00 +17°C° 0 mm 3 mps 759 mmHg 64%
03:00 +17°C° 0 mm 3 mps 759 mmHg 67%
04:00 +17°C° 0 mm 3 mps 759 mmHg 70%
05:00 +16°C° 0 mm 3 mps 759 mmHg 73%
06:00 +17°C° 0 mm 3 mps 760 mmHg 69%
07:00 +18°C° 0 mm 3 mps 760 mmHg 66%
08:00 +20°C° 0 mm 3 mps 760 mmHg 60%
09:00 +21°C° 0 mm 3 mps 760 mmHg 55%
10:00 +22°C° 0 mm 3 mps 760 mmHg 49%
11:00 +24°C° 0 mm 3 mps 760 mmHg 44%
12:00 +24°C° 0 mm 3 mps 760 mmHg 43%
13:00 +24°C° 0 mm 3 mps 759 mmHg 42%
14:00 +25°C° 0 mm 4 mps 759 mmHg 41%
15:00 +23°C° 0 mm 4 mps 759 mmHg 44%
16:00 +22°C° 0 mm 3 mps 758 mmHg 47%
17:00 +22°C° 0 mm 3 mps 758 mmHg 50%
18:00 +21°C° 0 mm 3 mps 758 mmHg 54%
19:00 +20°C° 0 mm 3 mps 758 mmHg 58%
20:00 +20°C° 0 mm 3 mps 758 mmHg 61%
21:00 +19°C° 0 mm 3 mps 758 mmHg 63%
22:00 +19°C° 0 mm 3 mps 758 mmHg 64%
23:00 +19°C° 0 mm 3 mps 757 mmHg 65%

Tomorrow, 29 September, Tuesday

Time Temperature Precipitation Wind Pressure Humidity
00:00 +19°C° 0 mm 3 mps 757 mmHg 66%
01:00 +19°C° 0 mm 4 mps 757 mmHg 66%
02:00 +19°C° 0 mm 4 mps 756 mmHg 67%
03:00 +19°C° 0 mm 4 mps 756 mmHg 67%
04:00 +19°C° 0 mm 4 mps 755 mmHg 67%
05:00 +19°C° 0 mm 5 mps 755 mmHg 67%
06:00 +20°C° 0 mm 5 mps 754 mmHg 68%
07:00 +21°C° 0 mm 6 mps 754 mmHg 70%
08:00 +22°C° 0 mm 7 mps 754 mmHg 71%
09:00 +22°C° 0.3 mm 7 mps 753 mmHg 68%
10:00 +23°C° 0.3 mm 8 mps 752 mmHg 66%
11:00 +23°C° 0.3 mm 8 mps 752 mmHg 64%
12:00 +23°C° 0.6 mm 8 mps 751 mmHg 64%
13:00 +23°C° 0.6 mm 8 mps 751 mmHg 64%
14:00 +24°C° 0.6 mm 8 mps 750 mmHg 64%
15:00 +23°C° 0.5 mm 8 mps 749 mmHg 70%
16:00 +23°C° 0.5 mm 8 mps 749 mmHg 76%
17:00 +22°C° 0.5 mm 8 mps 748 mmHg 81%
18:00 +22°C° 0.9 mm 7 mps 748 mmHg 81%
19:00 +22°C° 0.9 mm 6 mps 748 mmHg 80%
20:00 +21°C° 0.9 mm 5 mps 748 mmHg 80%
21:00 +20°C° 0.2 mm 6 mps 748 mmHg 82%
22:00 +19°C° 0.2 mm 6 mps 748 mmHg 84%
23:00 +16°C° 0.2 mm 6 mps 747 mmHg 86%

Day after tomorrow, 30 September, Wednesday

Time Temperature Precipitation Wind Pressure Humidity
00:00 +16°C° 0 mm 6 mps 747 mmHg 86%
01:00 +15°C° 0 mm 5 mps 747 mmHg 86%
02:00 +15°C° 0 mm 4 mps 747 mmHg 86%
03:00 +15°C° 0 mm 4 mps 747 mmHg 86%
04:00 +15°C° 0 mm 4 mps 747 mmHg 86%
05:00 +15°C° 0 mm 4 mps 747 mmHg 86%
06:00 +15°C° 0 mm 5 mps 747 mmHg 82%
07:00 +16°C° 0 mm 5 mps 747 mmHg 79%
08:00 +17°C° 0 mm 6 mps 747 mmHg 75%
09:00 +17°C° 0 mm 6 mps 748 mmHg 74%
10:00 +17°C° 0 mm 6 mps 748 mmHg 72%
11:00 +17°C° 0 mm 6 mps 748 mmHg 70%
12:00 +19°C° 0 mm 5 mps 748 mmHg 66%
13:00 +19°C° 0 mm 5 mps 748 mmHg 61%
14:00 +20°C° 0 mm 4 mps 748 mmHg 57%
15:00 +20°C° 0 mm 4 mps 748 mmHg 58%
16:00 +19°C° 0 mm 4 mps 748 mmHg 58%
17:00 +19°C° 0 mm 3 mps 748 mmHg 59%
18:00 +18°C° 0 mm 3 mps 748 mmHg 60%
19:00 +18°C° 0 mm 3 mps 748 mmHg 60%
20:00 +17°C° 0 mm 2 mps 749 mmHg 61%
21:00 +17°C° 0 mm 3 mps 749 mmHg 63%
22:00 +17°C° 0 mm 4 mps 749 mmHg 66%
23:00 +17°C° 0 mm 5 mps 749 mmHg 69%

1 October, Thursday

Time Temperature Precipitation Wind Pressure Humidity
00:00 +17°C° 0.2 mm 5 mps 749 mmHg 69%
01:00 +16°C° 0.2 mm 5 mps 749 mmHg 70%
02:00 +16°C° 0.2 mm 5 mps 748 mmHg 70%
03:00 +16°C° 0.4 mm 5 mps 749 mmHg 71%
04:00 +16°C° 0.4 mm 5 mps 749 mmHg 71%
05:00 +16°C° 0.4 mm 5 mps 749 mmHg 71%
06:00 +17°C° 0.6 mm 5 mps 749 mmHg 69%
07:00 +17°C° 0.6 mm 5 mps 749 mmHg 67%
08:00 +19°C° 0.6 mm 6 mps 749 mmHg 66%
09:00 +19°C° 0.2 mm 6 mps 749 mmHg 64%
10:00 +19°C° 0.2 mm 6 mps 749 mmHg 62%
11:00 +20°C° 0.2 mm 7 mps 749 mmHg 60%
12:00 +20°C° 0.1 mm 7 mps 749 mmHg 59%
13:00 +20°C° 0.1 mm 7 mps 749 mmHg 59%
14:00 +21°C° 0.1 mm 7 mps 749 mmHg 58%
15:00 +20°C° 0 mm 7 mps 749 mmHg 60%
16:00 +20°C° 0 mm 6 mps 750 mmHg 63%
17:00 +19°C° 0 mm 6 mps 750 mmHg 65%
18:00 +19°C° 0.2 mm 6 mps 750 mmHg 65%
19:00 +19°C° 0.2 mm 6 mps 751 mmHg 65%
20:00 +17°C° 0.2 mm 6 mps 751 mmHg 65%
21:00 +17°C° 0.3 mm 5 mps 751 mmHg 65%
22:00 +17°C° 0.3 mm 5 mps 751 mmHg 64%
23:00 +18°C° 0.3 mm 4 mps 751 mmHg 63%

2 October, Friday

Time Temperature Precipitation Wind Pressure Humidity
00:00 +18°C° 0.1 mm 4 mps 752 mmHg 63%
01:00 +18°C° 0.1 mm 4 mps 752 mmHg 63%
02:00 +17°C° 0.1 mm 3 mps 752 mmHg 63%
03:00 +17°C° 0.2 mm 3 mps 752 mmHg 65%
04:00 +17°C° 0.2 mm 3 mps 752 mmHg 66%
05:00 +17°C° 0.2 mm 2 mps 752 mmHg 68%
06:00 +17°C° 0.5 mm 3 mps 752 mmHg 68%
07:00 +18°C° 0.5 mm 3 mps 752 mmHg 69%
08:00 +18°C° 0.5 mm 4 mps 752 mmHg 70%
09:00 +19°C° 0.6 mm 4 mps 753 mmHg 67%
10:00 +19°C° 0.6 mm 5 mps 753 mmHg 63%
11:00 +20°C° 0.6 mm 5 mps 753 mmHg 60%
12:00 +20°C° 0.6 mm 5 mps 753 mmHg 60%
13:00 +20°C° 0.6 mm 5 mps 753 mmHg 61%
14:00 +20°C° 0.6 mm 5 mps 753 mmHg 61%
15:00 +20°C° 0.5 mm 5 mps 753 mmHg 62%
16:00 +20°C° 0.5 mm 4 mps 753 mmHg 64%
17:00 +20°C° 0.5 mm 4 mps 753 mmHg 65%
18:00 +19°C° 0.2 mm 3 mps 754 mmHg 66%
19:00 +18°C° 0.2 mm 3 mps 754 mmHg 68%
20:00 +18°C° 0.2 mm 3 mps 754 mmHg 69%
21:00 +18°C° 0.1 mm 2 mps 754 mmHg 70%
22:00 +17°C° 0.1 mm 2 mps 755 mmHg 71%
23:00 +17°C° 0.1 mm 2 mps 755 mmHg 72%

3 October, Saturday

Time Temperature Precipitation Wind Pressure Humidity
00:00 +17°C° 0 mm 2 mps 755 mmHg 73%
01:00 +18°C° 0 mm 1 mps 755 mmHg 74%
02:00 +16°C° 0 mm 1 mps 755 mmHg 75%
03:00 +16°C° 0 mm 1 mps 755 mmHg 76%
04:00 +16°C° 0 mm 1 mps 755 mmHg 76%
05:00 +15°C° 0 mm 0 mps 755 mmHg 77%
06:00 +18°C° 0 mm 1 mps 755 mmHg 74%
07:00 +19°C° 0 mm 1 mps 756 mmHg 71%
08:00 +19°C° 0 mm 1 mps 756 mmHg 67%
09:00 +20°C° 0 mm 2 mps 756 mmHg 62%
10:00 +21°C° 0 mm 2 mps 756 mmHg 57%
11:00 +22°C° 0 mm 3 mps 756 mmHg 52%
12:00 +22°C° 0 mm 3 mps 756 mmHg 52%
13:00 +24°C° 0 mm 3 mps 756 mmHg 52%
14:00 +24°C° 0 mm 3 mps 756 mmHg 52%
15:00 +22°C° 0 mm 3 mps 756 mmHg 56%
16:00 +21°C° 0 mm 4 mps 756 mmHg 61%
17:00 +21°C° 0 mm 4 mps 756 mmHg 65%
18:00 +20°C° 0.1 mm 3 mps 756 mmHg 68%
19:00 +20°C° 0.1 mm 3 mps 756 mmHg 71%
20:00 +19°C° 0.1 mm 3 mps 757 mmHg 74%
21:00 +19°C° 0 mm 2 mps 757 mmHg 74%
22:00 +19°C° 0 mm 2 mps 757 mmHg 74%
23:00 +19°C° 0 mm 2 mps 757 mmHg 74%
Show more